Year,Month,Day,Hour,Minute,Value (Times are PST for temperature in C)
2016,09,17,00,01,13.00
2016,09,17,00,02,13.10
2016,09,17,00,03,13.10
2016,09,17,00,04,13.10
2016,09,17,00,06,13.10
2016,09,17,00,07,13.10
2016,09,17,00,09,13.10
2016,09,17,00,10,13.10
2016,09,17,00,11,13.10
2016,09,17,00,12,13.10
2016,09,17,00,13,13.10
2016,09,17,00,14,13.10
2016,09,17,00,15,13.20
2016,09,17,00,16,13.20
2016,09,17,00,17,13.20
2016,09,17,00,18,13.20
2016,09,17,00,19,13.20
2016,09,17,00,20,13.20
2016,09,17,00,21,13.20
2016,09,17,00,22,13.20
2016,09,17,00,23,13.20
2016,09,17,00,24,13.30
2016,09,17,00,25,13.30
2016,09,17,00,26,13.30
2016,09,17,00,27,13.30
2016,09,17,00,28,13.30
2016,09,17,00,29,13.30
2016,09,17,00,30,13.30
2016,09,17,00,31,13.20
2016,09,17,00,32,13.20
2016,09,17,00,33,13.20
2016,09,17,00,34,13.20
2016,09,17,00,35,13.20
2016,09,17,00,36,13.20
2016,09,17,00,37,13.20
2016,09,17,00,38,13.10
2016,09,17,00,39,13.10
2016,09,17,00,40,13.10
2016,09,17,00,41,13.10
2016,09,17,00,42,13.10
2016,09,17,00,43,13.00
2016,09,17,00,44,13.00
2016,09,17,00,45,13.00
2016,09,17,00,46,13.00
2016,09,17,00,47,13.00
2016,09,17,00,48,13.00
2016,09,17,00,49,13.00
2016,09,17,00,50,13.00
2016,09,17,00,51,13.00
2016,09,17,00,52,13.00
2016,09,17,00,53,12.90
2016,09,17,00,54,12.90
2016,09,17,00,55,12.90
2016,09,17,00,56,12.90
2016,09,17,00,57,12.80
2016,09,17,00,58,12.80
2016,09,17,00,59,12.80
2016,09,17,01,00,12.80
2016,09,17,01,01,12.70
2016,09,17,01,02,12.70
2016,09,17,01,03,12.70
2016,09,17,01,04,12.60
2016,09,17,01,05,12.60
2016,09,17,01,06,12.50
2016,09,17,01,07,12.50
2016,09,17,01,08,12.40
2016,09,17,01,09,12.40
2016,09,17,01,10,12.40
2016,09,17,01,11,12.30
2016,09,17,01,12,12.30
2016,09,17,01,13,12.30
2016,09,17,01,14,12.30
2016,09,17,01,15,12.30
2016,09,17,01,16,12.30
2016,09,17,01,17,12.20
2016,09,17,01,18,12.20
2016,09,17,01,19,12.20
2016,09,17,01,20,12.20
2016,09,17,01,21,12.20
2016,09,17,01,22,12.20
2016,09,17,01,23,12.20
2016,09,17,01,24,12.20
2016,09,17,01,25,12.10
2016,09,17,01,26,12.10
2016,09,17,01,27,12.10
2016,09,17,01,28,12.10
2016,09,17,01,30,12.20
2016,09,17,01,31,12.20
2016,09,17,01,32,12.20
2016,09,17,01,33,12.20
2016,09,17,01,34,12.20
2016,09,17,01,35,12.20
2016,09,17,01,36,12.20
2016,09,17,01,37,12.20
2016,09,17,01,38,12.20
2016,09,17,01,39,12.20
2016,09,17,01,40,12.20
2016,09,17,01,41,12.20
2016,09,17,01,42,12.20
2016,09,17,01,43,12.20
2016,09,17,01,44,12.20
2016,09,17,01,45,12.20
2016,09,17,01,46,12.20
2016,09,17,01,47,12.20
2016,09,17,01,48,12.20
2016,09,17,01,49,12.20
2016,09,17,01,50,12.20
2016,09,17,01,51,12.20
2016,09,17,01,52,12.20
2016,09,17,01,53,12.10
2016,09,17,01,54,12.10
2016,09,17,01,55,12.10
2016,09,17,01,56,12.10
2016,09,17,01,57,12.10
2016,09,17,01,58,12.20
2016,09,17,01,59,12.20
2016,09,17,02,00,12.20
2016,09,17,02,01,12.20
2016,09,17,02,02,12.20
2016,09,17,02,03,12.20
2016,09,17,02,04,12.20
2016,09,17,02,05,12.20
2016,09,17,02,06,12.20
2016,09,17,02,07,12.20
2016,09,17,02,08,12.20
2016,09,17,02,09,12.20
2016,09,17,02,10,12.20
2016,09,17,02,11,12.20
2016,09,17,02,13,12.10
2016,09,17,02,14,12.10
2016,09,17,02,16,12.10
2016,09,17,02,17,12.10
2016,09,17,02,18,12.10
2016,09,17,02,19,12.00
2016,09,17,02,21,12.00
2016,09,17,02,22,12.00
2016,09,17,02,23,12.00
2016,09,17,02,24,12.00
2016,09,17,02,26,12.00
2016,09,17,02,27,12.10
2016,09,17,02,28,12.10
2016,09,17,02,29,12.10
2016,09,17,02,31,12.10
2016,09,17,02,32,12.10
2016,09,17,02,33,12.10
2016,09,17,02,34,12.10
2016,09,17,02,36,12.20
2016,09,17,02,37,12.20
2016,09,17,02,38,12.20
2016,09,17,02,39,12.20
2016,09,17,02,41,12.20
2016,09,17,02,42,12.20
2016,09,17,02,43,12.20
2016,09,17,02,44,12.20
2016,09,17,02,46,12.20
2016,09,17,02,47,12.20
2016,09,17,02,48,12.20
2016,09,17,02,49,12.10
2016,09,17,02,51,12.10
2016,09,17,02,52,12.00
2016,09,17,02,53,12.00
2016,09,17,02,54,12.00
2016,09,17,02,56,12.00
2016,09,17,02,57,11.90
2016,09,17,02,58,11.90
2016,09,17,02,59,11.90
2016,09,17,03,01,11.90
2016,09,17,03,02,11.90
2016,09,17,03,03,11.90
2016,09,17,03,04,11.90
2016,09,17,03,06,11.90
2016,09,17,03,07,11.90
2016,09,17,03,08,11.90
2016,09,17,03,09,11.90
2016,09,17,03,11,11.90
2016,09,17,03,12,11.90
2016,09,17,03,13,11.90
2016,09,17,03,14,11.90
2016,09,17,03,16,11.90
2016,09,17,03,17,11.90
2016,09,17,03,18,11.90
2016,09,17,03,19,11.90
2016,09,17,03,21,11.80
2016,09,17,03,22,11.80
2016,09,17,03,23,11.80
2016,09,17,03,24,11.80
2016,09,17,03,26,11.80
2016,09,17,03,27,11.80
2016,09,17,03,28,11.80
2016,09,17,03,29,11.80
2016,09,17,03,31,11.80
2016,09,17,03,32,11.80
2016,09,17,03,33,11.80
2016,09,17,03,34,11.80
2016,09,17,03,36,11.90
2016,09,17,03,37,11.90
2016,09,17,03,38,11.80
2016,09,17,03,39,11.80
2016,09,17,03,40,11.80
2016,09,17,03,41,11.80
2016,09,17,03,42,11.80
2016,09,17,03,43,11.80
2016,09,17,03,44,11.80
2016,09,17,03,45,11.80
2016,09,17,03,46,11.80
2016,09,17,03,47,11.80
2016,09,17,03,48,11.80
2016,09,17,03,49,11.80
2016,09,17,03,50,11.80
2016,09,17,03,51,11.80
2016,09,17,03,52,11.80
2016,09,17,03,53,11.80
2016,09,17,03,54,11.80
2016,09,17,03,55,11.80
2016,09,17,03,56,11.80
2016,09,17,03,57,11.80
2016,09,17,03,58,11.80
2016,09,17,03,59,11.80
2016,09,17,04,00,11.80
2016,09,17,04,01,11.80
2016,09,17,04,02,11.80
2016,09,17,04,03,11.80
2016,09,17,04,04,11.80
2016,09,17,04,05,11.80
2016,09,17,04,06,11.80
2016,09,17,04,07,11.80
2016,09,17,04,08,11.80
2016,09,17,04,09,11.80
2016,09,17,04,10,11.80
2016,09,17,04,11,11.80
2016,09,17,04,12,11.80
2016,09,17,04,13,11.80
2016,09,17,04,14,11.80
2016,09,17,04,15,11.80
2016,09,17,04,16,11.80
2016,09,17,04,17,11.80
2016,09,17,04,18,11.80
2016,09,17,04,19,11.80
2016,09,17,04,20,11.80
2016,09,17,04,21,11.80
2016,09,17,04,22,11.80
2016,09,17,04,23,11.80
2016,09,17,04,24,11.80
2016,09,17,04,25,11.80
2016,09,17,04,26,11.80
2016,09,17,04,27,11.80
2016,09,17,04,28,11.80
2016,09,17,04,29,11.80
2016,09,17,04,30,11.80
2016,09,17,04,31,11.80
2016,09,17,04,32,11.90
2016,09,17,04,33,11.90
2016,09,17,04,34,11.90
2016,09,17,04,35,12.00
2016,09,17,04,36,12.00
2016,09,17,04,37,12.00
2016,09,17,04,38,12.00
2016,09,17,04,39,12.00
2016,09,17,04,40,12.00
2016,09,17,04,41,12.00
2016,09,17,04,42,12.00
2016,09,17,04,43,12.00
2016,09,17,04,44,12.10
2016,09,17,04,45,12.10
2016,09,17,04,46,12.10
2016,09,17,04,47,12.10
2016,09,17,04,48,12.10
2016,09,17,04,49,12.20
2016,09,17,04,50,12.10
2016,09,17,04,51,12.10
2016,09,17,04,52,12.10
2016,09,17,04,54,12.10
2016,09,17,04,56,12.00
2016,09,17,04,57,12.00
2016,09,17,04,58,12.00
2016,09,17,04,59,12.00
2016,09,17,05,01,12.00
2016,09,17,05,02,12.00
2016,09,17,05,03,11.90
2016,09,17,05,04,11.90
2016,09,17,05,06,11.90
2016,09,17,05,07,11.90
2016,09,17,05,08,11.90
2016,09,17,05,09,11.90
2016,09,17,05,11,11.90
2016,09,17,05,12,11.90
2016,09,17,05,13,11.90
2016,09,17,05,14,11.90
2016,09,17,05,16,11.90
2016,09,17,05,17,11.90
2016,09,17,05,18,11.90
2016,09,17,05,19,11.90
2016,09,17,05,21,11.90
2016,09,17,05,22,11.90
2016,09,17,05,23,11.90
2016,09,17,05,24,12.00
2016,09,17,05,26,12.00
2016,09,17,05,27,12.00
2016,09,17,05,28,12.00
2016,09,17,05,29,12.10
2016,09,17,05,31,12.10
2016,09,17,05,32,12.10
2016,09,17,05,33,12.10
2016,09,17,05,34,12.10
2016,09,17,05,36,12.10
2016,09,17,05,37,12.10
2016,09,17,05,38,12.10
2016,09,17,05,39,12.10
2016,09,17,05,41,12.10
2016,09,17,06,30,12.00
2016,09,17,06,31,12.00
2016,09,17,06,32,12.00
2016,09,17,06,33,12.00
2016,09,17,06,34,12.00
2016,09,17,06,35,12.00
2016,09,17,06,36,12.00
2016,09,17,06,37,12.00
2016,09,17,06,38,12.00
2016,09,17,06,39,12.00
2016,09,17,06,40,12.00
2016,09,17,06,41,12.00
2016,09,17,06,42,12.00
2016,09,17,06,43,12.00
2016,09,17,06,44,12.00
2016,09,17,06,45,12.00
2016,09,17,06,46,12.00
2016,09,17,06,47,12.00
2016,09,17,06,48,12.00
2016,09,17,06,49,12.10
2016,09,17,06,50,12.10
2016,09,17,06,51,12.10
2016,09,17,06,52,12.10
2016,09,17,06,53,12.10
2016,09,17,06,54,12.10
2016,09,17,06,55,12.10
2016,09,17,06,56,12.10
2016,09,17,06,57,12.10
2016,09,17,06,58,12.10
2016,09,17,06,59,12.10
2016,09,17,07,00,12.10
2016,09,17,07,01,12.10
2016,09,17,07,02,12.10
2016,09,17,07,03,12.10
2016,09,17,07,04,12.20
2016,09,17,07,05,12.20
2016,09,17,07,06,12.20
2016,09,17,07,07,12.20
2016,09,17,07,08,12.20
2016,09,17,07,09,12.20
2016,09,17,07,11,12.30
2016,09,17,07,12,12.30
2016,09,17,07,13,12.30
2016,09,17,07,14,12.30
2016,09,17,07,16,12.30
2016,09,17,07,17,12.30
2016,09,17,07,18,12.30
2016,09,17,07,19,12.40
2016,09,17,07,21,12.40
2016,09,17,07,22,12.50
2016,09,17,07,23,12.50
2016,09,17,07,24,12.60
2016,09,17,07,26,12.70
2016,09,17,07,27,12.70
2016,09,17,07,28,12.70
2016,09,17,07,29,12.80
2016,09,17,07,31,12.70
2016,09,17,07,32,12.70
2016,09,17,07,33,12.70
2016,09,17,07,34,12.80
2016,09,17,07,36,12.80
2016,09,17,07,37,12.80
2016,09,17,07,38,12.80
2016,09,17,07,39,12.80
2016,09,17,07,41,12.80
2016,09,17,07,42,12.80
2016,09,17,07,43,12.80
2016,09,17,07,44,12.80
2016,09,17,07,46,12.80
2016,09,17,07,47,12.80
2016,09,17,07,48,12.80
2016,09,17,07,49,12.80
2016,09,17,07,51,12.80
2016,09,17,07,52,12.80
2016,09,17,07,53,12.80
2016,09,17,07,54,12.80
2016,09,17,07,56,12.70
2016,09,17,07,57,12.70
2016,09,17,07,58,12.70
2016,09,17,07,59,12.70
2016,09,17,08,01,12.70
2016,09,17,08,02,12.70
2016,09,17,08,03,12.70
2016,09,17,08,04,12.70
2016,09,17,08,06,12.70
2016,09,17,08,07,12.70
2016,09,17,08,08,12.70
2016,09,17,08,09,12.70
2016,09,17,08,11,12.70
2016,09,17,08,12,12.70
2016,09,17,08,13,12.70
2016,09,17,08,14,12.70
2016,09,17,08,15,12.70
2016,09,17,08,16,12.70
2016,09,17,08,17,12.70
2016,09,17,08,18,12.70
2016,09,17,08,19,12.70
2016,09,17,08,20,12.70
2016,09,17,08,21,12.70
2016,09,17,08,22,12.70
2016,09,17,08,23,12.70
2016,09,17,08,24,12.70
2016,09,17,08,25,12.60
2016,09,17,08,26,12.60
2016,09,17,08,27,12.60
2016,09,17,08,28,12.60
2016,09,17,08,29,12.60
2016,09,17,08,30,12.60
2016,09,17,08,31,12.60
2016,09,17,08,32,12.60
2016,09,17,08,33,12.60
2016,09,17,08,34,12.60
2016,09,17,08,36,12.60
2016,09,17,08,37,12.60
2016,09,17,08,38,12.60
2016,09,17,08,39,12.60
2016,09,17,08,40,12.60
2016,09,17,08,41,12.60
2016,09,17,08,42,12.60
2016,09,17,08,43,12.70
2016,09,17,08,44,12.70
2016,09,17,08,45,12.70
2016,09,17,08,46,12.60
2016,09,17,08,47,12.60
2016,09,17,08,48,12.60
2016,09,17,08,49,12.60
2016,09,17,08,50,12.60
2016,09,17,08,51,12.60
2016,09,17,08,52,12.60
2016,09,17,08,53,12.60
2016,09,17,08,54,12.60
2016,09,17,08,55,12.60
2016,09,17,08,56,12.60
2016,09,17,08,57,12.60
2016,09,17,08,58,12.60
2016,09,17,08,59,12.60
2016,09,17,09,00,12.60
2016,09,17,09,01,12.60
2016,09,17,09,02,12.60
2016,09,17,09,03,12.60
2016,09,17,09,04,12.60
2016,09,17,09,05,12.60
2016,09,17,09,06,12.60
2016,09,17,09,07,12.60
2016,09,17,09,08,12.70
2016,09,17,09,09,12.70
2016,09,17,09,10,12.80
2016,09,17,09,11,12.80
2016,09,17,09,12,12.70
2016,09,17,09,13,12.70
2016,09,17,09,14,12.70
2016,09,17,09,15,12.70
2016,09,17,09,16,12.60
2016,09,17,09,17,12.60
2016,09,17,09,18,12.60
2016,09,17,09,19,12.60
2016,09,17,09,20,12.60
2016,09,17,09,21,12.70
2016,09,17,09,22,12.70
2016,09,17,09,23,12.70
2016,09,17,09,24,12.70
2016,09,17,09,25,12.70
2016,09,17,09,26,12.70
2016,09,17,09,27,12.60
2016,09,17,09,28,12.60
2016,09,17,09,29,12.60
2016,09,17,09,30,12.60
2016,09,17,09,31,12.60
2016,09,17,09,32,12.60
2016,09,17,09,33,12.60
2016,09,17,09,34,12.60
2016,09,17,09,35,12.60
2016,09,17,09,36,12.60
2016,09,17,09,37,12.60
2016,09,17,09,38,12.60
2016,09,17,09,39,12.60
2016,09,17,09,40,12.60
2016,09,17,09,41,12.60
2016,09,17,09,43,12.60
2016,09,17,09,44,12.60
2016,09,17,09,46,12.60
2016,09,17,09,47,12.60
2016,09,17,09,48,12.60
2016,09,17,09,49,12.60
2016,09,17,09,51,12.60
2016,09,17,09,52,12.60
2016,09,17,09,53,12.60
2016,09,17,09,54,12.60
2016,09,17,09,56,12.60
2016,09,17,09,57,12.60
2016,09,17,09,58,12.60
2016,09,17,09,59,12.60
2016,09,17,10,01,12.60
2016,09,17,10,02,12.60
2016,09,17,10,03,12.60
2016,09,17,10,04,12.60
2016,09,17,10,06,12.60
2016,09,17,10,07,12.60
2016,09,17,10,08,12.60
2016,09,17,10,09,12.60
2016,09,17,10,11,12.70
2016,09,17,10,12,12.70
2016,09,17,10,13,12.70
2016,09,17,10,14,12.70
2016,09,17,10,16,12.70
2016,09,17,10,17,12.80
2016,09,17,10,18,12.80
2016,09,17,10,19,12.80
2016,09,17,10,21,12.80
2016,09,17,10,22,12.80
2016,09,17,10,23,12.80
2016,09,17,10,24,12.80
2016,09,17,10,26,12.80
2016,09,17,10,27,12.80
2016,09,17,10,28,12.80
2016,09,17,10,29,12.80
2016,09,17,10,31,12.90
2016,09,17,10,32,12.90
2016,09,17,10,33,12.90
2016,09,17,10,34,13.00
2016,09,17,10,36,13.10
2016,09,17,10,37,13.20
2016,09,17,10,38,13.20
2016,09,17,10,39,13.20
2016,09,17,10,41,13.30
2016,09,17,10,42,13.30
2016,09,17,10,43,13.30
2016,09,17,10,44,13.30
2016,09,17,10,46,13.30
2016,09,17,10,47,13.40
2016,09,17,10,48,13.40
2016,09,17,10,49,13.40
2016,09,17,10,51,13.40
2016,09,17,10,52,13.40
2016,09,17,10,53,13.40
2016,09,17,10,54,13.40
2016,09,17,10,56,13.40
2016,09,17,10,57,13.40
2016,09,17,10,58,13.30
2016,09,17,10,59,13.30
2016,09,17,11,00,13.30
2016,09,17,11,01,13.30
2016,09,17,11,02,13.30
2016,09,17,11,03,13.30
2016,09,17,11,04,13.30
2016,09,17,11,06,13.20
2016,09,17,11,07,13.20
2016,09,17,11,08,13.20
2016,09,17,11,09,13.20
2016,09,17,11,10,13.20
2016,09,17,11,11,13.20
2016,09,17,11,12,13.20
2016,09,17,11,13,13.20
2016,09,17,11,14,13.20
2016,09,17,11,15,13.20
2016,09,17,11,16,13.30
2016,09,17,11,17,13.30
2016,09,17,11,18,13.30
2016,09,17,11,19,13.30
2016,09,17,11,20,13.30
2016,09,17,11,21,13.40
2016,09,17,11,22,13.50
2016,09,17,11,23,13.50
2016,09,17,11,24,13.60
2016,09,17,11,25,13.60
2016,09,17,11,26,13.70
2016,09,17,11,27,13.70
2016,09,17,11,28,13.70
2016,09,17,11,29,13.70
2016,09,17,11,30,13.70
2016,09,17,11,31,13.70
2016,09,17,11,32,13.70
2016,09,17,11,33,13.70
2016,09,17,11,34,13.70
2016,09,17,11,35,13.70
2016,09,17,11,36,13.70
2016,09,17,11,37,13.70
2016,09,17,11,38,13.60
2016,09,17,11,39,13.60
2016,09,17,11,40,13.60
2016,09,17,11,41,13.50
2016,09,17,11,42,13.50
2016,09,17,11,43,13.40
2016,09,17,11,44,13.40
2016,09,17,11,45,13.30
2016,09,17,11,46,13.30
2016,09,17,11,47,13.30
2016,09,17,11,48,13.40
2016,09,17,11,49,13.40
2016,09,17,11,50,13.50
2016,09,17,11,51,13.50
2016,09,17,11,52,13.60
2016,09,17,11,53,13.70
2016,09,17,11,54,13.70
2016,09,17,11,55,13.70
2016,09,17,11,56,13.80
2016,09,17,11,57,13.80
2016,09,17,11,58,13.80
2016,09,17,11,59,13.90
2016,09,17,12,00,13.90
2016,09,17,12,01,14.00
2016,09,17,12,02,14.00
2016,09,17,12,03,14.00
2016,09,17,12,04,14.00
2016,09,17,12,05,13.90
2016,09,17,12,06,13.80
2016,09,17,12,07,13.80
2016,09,17,12,08,13.70
2016,09,17,12,09,13.60
2016,09,17,12,10,13.50
2016,09,17,12,11,13.40
2016,09,17,12,12,13.40
2016,09,17,12,13,13.40
2016,09,17,12,14,13.30
2016,09,17,12,15,13.30
2016,09,17,12,16,13.30
2016,09,17,12,17,13.30
2016,09,17,12,18,13.20
2016,09,17,12,19,13.20
2016,09,17,12,20,13.20
2016,09,17,12,21,13.20
2016,09,17,12,22,13.20
2016,09,17,12,23,13.20
2016,09,17,12,24,13.20
2016,09,17,12,25,13.20
2016,09,17,12,26,13.20
2016,09,17,12,27,13.20
2016,09,17,12,28,13.20
2016,09,17,12,29,13.20
2016,09,17,12,30,13.20
2016,09,17,12,31,13.20
2016,09,17,12,32,13.20
2016,09,17,12,33,13.30
2016,09,17,12,34,13.20
2016,09,17,12,36,13.20
2016,09,17,12,37,13.20
2016,09,17,12,38,13.20
2016,09,17,12,39,13.10
2016,09,17,12,41,13.10
2016,09,17,12,42,13.00
2016,09,17,12,43,13.00
2016,09,17,12,44,13.10
2016,09,17,12,46,13.10
2016,09,17,12,47,13.20
2016,09,17,12,48,13.20
2016,09,17,12,49,13.20
2016,09,17,12,51,13.30
2016,09,17,12,52,13.30
2016,09,17,12,53,13.30
2016,09,17,12,54,13.30
2016,09,17,12,56,13.60
2016,09,17,12,57,13.70
2016,09,17,12,58,13.70
2016,09,17,12,59,13.90
2016,09,17,13,01,14.10
2016,09,17,13,02,14.20
2016,09,17,13,03,14.20
2016,09,17,13,04,14.20
2016,09,17,13,06,14.30
2016,09,17,13,07,14.30
2016,09,17,13,08,14.20
2016,09,17,13,09,14.20
2016,09,17,13,11,14.20
2016,09,17,13,12,14.20
2016,09,17,13,13,14.20
2016,09,17,13,14,14.20
2016,09,17,13,16,14.20
2016,09,17,13,17,14.20
2016,09,17,13,18,14.20
2016,09,17,13,19,14.20
2016,09,17,13,21,14.20
2016,09,17,13,22,14.30
2016,09,17,13,23,14.30
2016,09,17,13,24,14.30
2016,09,17,13,26,14.40
2016,09,17,13,27,14.40
2016,09,17,13,28,14.30
2016,09,17,13,29,14.30
2016,09,17,13,31,14.40
2016,09,17,13,32,14.40
2016,09,17,13,33,14.40
2016,09,17,13,34,14.40
2016,09,17,13,36,14.50
2016,09,17,13,37,14.50
2016,09,17,13,38,14.60
2016,09,17,13,39,14.60
2016,09,17,13,41,14.60
2016,09,17,13,42,14.60
2016,09,17,13,43,14.70
2016,09,17,13,44,14.70
2016,09,17,13,46,14.70
2016,09,17,13,47,14.80
2016,09,17,13,48,14.80
2016,09,17,13,49,14.80
2016,09,17,13,51,14.80
2016,09,17,13,52,14.80
2016,09,17,13,53,14.80
2016,09,17,13,54,14.80
2016,09,17,13,55,14.80
2016,09,17,13,56,14.80
2016,09,17,13,57,14.80
2016,09,17,13,58,14.80
2016,09,17,13,59,14.80
2016,09,17,14,00,14.80
2016,09,17,14,01,14.80
2016,09,17,14,02,14.80
2016,09,17,14,03,14.90
2016,09,17,14,04,14.90
2016,09,17,14,06,14.90
2016,09,17,14,07,15.00
2016,09,17,14,08,15.00
2016,09,17,14,09,15.00
2016,09,17,14,10,15.00
2016,09,17,14,11,15.00
2016,09,17,14,12,15.00
2016,09,17,14,13,15.10
2016,09,17,14,14,15.10
2016,09,17,14,15,15.10
2016,09,17,14,16,15.10
2016,09,17,14,17,15.20
2016,09,17,14,18,15.20
2016,09,17,14,19,15.20
2016,09,17,14,20,15.30
2016,09,17,14,21,15.30
2016,09,17,14,22,15.30
2016,09,17,14,23,15.30
2016,09,17,14,24,15.30
2016,09,17,14,25,15.30
2016,09,17,14,26,15.30
2016,09,17,14,27,15.30
2016,09,17,14,28,15.20
2016,09,17,14,29,15.20
2016,09,17,14,30,15.20
2016,09,17,14,31,15.30
2016,09,17,14,32,15.40
2016,09,17,14,33,15.70
2016,09,17,14,34,15.90
2016,09,17,14,35,16.20
2016,09,17,14,36,16.40
2016,09,17,14,37,16.70
2016,09,17,14,38,16.80
2016,09,17,14,39,17.00
2016,09,17,14,40,17.20
2016,09,17,14,41,17.30
2016,09,17,14,42,17.50
2016,09,17,14,43,17.60
2016,09,17,14,44,17.70
2016,09,17,14,45,17.90
2016,09,17,14,46,17.90
2016,09,17,14,47,18.10
2016,09,17,14,48,18.20
2016,09,17,14,49,18.20
2016,09,17,14,50,18.30
2016,09,17,14,51,18.40
2016,09,17,14,52,18.50
2016,09,17,14,53,18.50
2016,09,17,14,54,18.60
2016,09,17,14,55,18.70
2016,09,17,14,56,18.80
2016,09,17,14,57,18.80
2016,09,17,14,58,18.90
2016,09,17,14,59,18.90
2016,09,17,15,00,18.90
2016,09,17,15,01,18.90
2016,09,17,15,02,19.10
2016,09,17,15,03,19.10
2016,09,17,15,04,19.10
2016,09,17,15,05,19.10
2016,09,17,15,06,19.10
2016,09,17,15,07,19.10
2016,09,17,15,08,19.20
2016,09,17,15,09,19.20
2016,09,17,15,10,19.20
2016,09,17,15,11,19.20
2016,09,17,15,12,19.30
2016,09,17,15,13,19.30
2016,09,17,15,14,19.30
2016,09,17,15,15,19.40
2016,09,17,15,16,19.40
2016,09,17,15,17,19.40
2016,09,17,15,18,19.40
2016,09,17,15,19,19.40
2016,09,17,15,20,19.40
2016,09,17,15,21,19.50
2016,09,17,15,22,19.50
2016,09,17,15,23,19.50
2016,09,17,15,24,19.50
2016,09,17,15,26,19.50
2016,09,17,15,28,19.50
2016,09,17,15,29,19.40
2016,09,17,15,31,19.40
2016,09,17,15,32,19.40
2016,09,17,15,33,19.40
2016,09,17,15,34,19.40
2016,09,17,15,36,19.30
2016,09,17,15,37,19.30
2016,09,17,15,38,19.40
2016,09,17,15,39,19.40
2016,09,17,15,41,19.40
2016,09,17,15,42,19.40
2016,09,17,15,43,19.40
2016,09,17,15,44,19.40
2016,09,17,15,46,19.40
2016,09,17,15,47,19.40
2016,09,17,15,48,19.40
2016,09,17,15,49,19.40
2016,09,17,15,51,19.30
2016,09,17,15,52,19.30
2016,09,17,15,53,19.30
2016,09,17,15,54,19.20
2016,09,17,15,56,19.20
2016,09,17,15,57,19.20
2016,09,17,15,58,19.20
2016,09,17,15,59,19.20
2016,09,17,16,01,19.10
2016,09,17,16,02,19.10
2016,09,17,16,03,19.10
2016,09,17,16,04,19.10
2016,09,17,16,06,19.20
2016,09,17,16,07,19.10
2016,09,17,16,08,19.10
2016,09,17,16,09,19.10
2016,09,17,16,11,19.10
2016,09,17,16,12,19.10
2016,09,17,16,13,19.10
2016,09,17,16,14,18.90
2016,09,17,16,16,18.90
2016,09,17,16,17,18.80
2016,09,17,16,18,18.80
2016,09,17,16,19,18.80
2016,09,17,16,21,18.80
2016,09,17,16,22,18.70
2016,09,17,16,23,18.70
2016,09,17,16,24,18.70
2016,09,17,16,26,18.80
2016,09,17,16,27,18.80
2016,09,17,16,28,18.80
2016,09,17,16,29,18.80
2016,09,17,16,31,18.80
2016,09,17,16,32,18.80
2016,09,17,16,33,18.80
2016,09,17,16,34,18.70
2016,09,17,16,36,18.60
2016,09,17,16,37,18.60
2016,09,17,16,38,18.70
2016,09,17,16,39,18.70
2016,09,17,16,41,18.70
2016,09,17,16,42,18.70
2016,09,17,16,43,18.70
2016,09,17,16,44,18.70
2016,09,17,16,45,18.60
2016,09,17,16,46,18.60
2016,09,17,16,47,18.60
2016,09,17,16,48,18.50
2016,09,17,16,49,18.50
2016,09,17,16,50,18.50
2016,09,17,16,51,18.50
2016,09,17,16,52,18.50
2016,09,17,16,53,18.50
2016,09,17,16,54,18.50
2016,09,17,16,55,18.40
2016,09,17,16,56,18.40
2016,09,17,16,57,18.40
2016,09,17,16,58,18.30
2016,09,17,16,59,18.30
2016,09,17,17,00,18.30
2016,09,17,17,01,18.20
2016,09,17,17,02,18.20
2016,09,17,17,03,18.20
2016,09,17,17,04,18.10
2016,09,17,17,06,17.90
2016,09,17,17,07,17.90
2016,09,17,17,08,17.90
2016,09,17,17,09,17.90
2016,09,17,17,10,17.90
2016,09,17,17,11,17.90
2016,09,17,17,12,17.80
2016,09,17,17,13,17.80
2016,09,17,17,14,17.80
2016,09,17,17,15,17.80
2016,09,17,17,16,17.70
2016,09,17,17,17,17.70
2016,09,17,17,18,17.70
2016,09,17,17,19,17.60
2016,09,17,17,20,17.60
2016,09,17,17,21,17.60
2016,09,17,17,22,17.50
2016,09,17,17,23,17.50
2016,09,17,17,24,17.50
2016,09,17,17,25,17.50
2016,09,17,17,26,17.40
2016,09,17,17,27,17.40
2016,09,17,17,28,17.40
2016,09,17,17,29,17.40
2016,09,17,17,30,17.30
2016,09,17,17,31,17.30
2016,09,17,17,32,17.30
2016,09,17,17,33,17.30
2016,09,17,17,34,17.30
2016,09,17,17,35,17.30
2016,09,17,17,36,17.30
2016,09,17,17,37,17.20
2016,09,17,17,38,17.20
2016,09,17,17,39,17.20
2016,09,17,17,40,17.20
2016,09,17,17,41,17.20
2016,09,17,17,42,17.20
2016,09,17,17,43,17.20
2016,09,17,17,44,17.20
2016,09,17,17,45,17.10
2016,09,17,17,46,17.10
2016,09,17,17,47,17.10
2016,09,17,17,48,17.10
2016,09,17,17,49,17.00
2016,09,17,17,50,17.00
2016,09,17,17,51,17.00
2016,09,17,17,52,16.90
2016,09,17,17,53,16.90
2016,09,17,17,54,16.90
2016,09,17,17,55,16.90
2016,09,17,17,56,16.90
2016,09,17,17,57,16.80
2016,09,17,17,58,16.80
2016,09,17,17,59,16.80
2016,09,17,18,00,16.80
2016,09,17,18,01,16.80
2016,09,17,18,02,16.70
2016,09,17,18,03,16.70
2016,09,17,18,04,16.70
2016,09,17,18,05,16.70
2016,09,17,18,06,16.70
2016,09,17,18,07,16.70
2016,09,17,18,08,16.70
2016,09,17,18,09,16.70
2016,09,17,18,10,16.70
2016,09,17,18,11,16.70
2016,09,17,18,12,16.70
2016,09,17,18,14,16.70
2016,09,17,18,16,16.70
2016,09,17,18,17,16.70
2016,09,17,18,18,16.70
2016,09,17,18,19,16.70
2016,09,17,18,20,16.70
2016,09,17,18,22,16.70
2016,09,17,18,23,16.70
2016,09,17,18,24,16.70
2016,09,17,18,26,16.70
2016,09,17,18,27,16.60
2016,09,17,18,28,16.60
2016,09,17,18,29,16.60
2016,09,17,18,31,16.60
2016,09,17,18,32,16.40
2016,09,17,18,33,16.40
2016,09,17,18,34,16.40
2016,09,17,18,36,16.40
2016,09,17,18,37,16.40
2016,09,17,18,38,16.40
2016,09,17,18,39,16.40
2016,09,17,18,41,16.40
2016,09,17,18,42,16.40
2016,09,17,18,43,16.40
2016,09,17,18,44,16.30
2016,09,17,18,46,16.30
2016,09,17,18,47,16.30
2016,09,17,18,48,16.30
2016,09,17,18,49,16.20
2016,09,17,18,51,16.20
2016,09,17,18,52,16.20
2016,09,17,18,53,16.20
2016,09,17,18,54,16.20
2016,09,17,18,56,16.10
2016,09,17,18,57,16.10
2016,09,17,18,58,16.10
2016,09,17,18,59,16.10
2016,09,17,19,01,16.10
2016,09,17,19,02,16.10
2016,09,17,19,03,16.10
2016,09,17,19,04,15.90
2016,09,17,19,06,15.90
2016,09,17,19,07,15.90
2016,09,17,19,08,15.80
2016,09,17,19,09,15.80
2016,09,17,19,11,15.80
2016,09,17,19,12,15.80
2016,09,17,19,13,15.80
2016,09,17,19,14,15.80
2016,09,17,19,16,15.70
2016,09,17,19,17,15.70
2016,09,17,19,18,15.70
2016,09,17,19,19,15.60
2016,09,17,19,21,15.50
2016,09,17,19,22,15.50
2016,09,17,19,23,15.50
2016,09,17,19,24,15.40
2016,09,17,19,26,15.30
2016,09,17,19,27,15.30
2016,09,17,19,28,15.30
2016,09,17,19,29,15.30
2016,09,17,19,30,15.30
2016,09,17,19,31,15.30
2016,09,17,19,32,15.20
2016,09,17,19,33,15.20
2016,09,17,19,34,15.20
2016,09,17,19,36,15.10
2016,09,17,19,37,15.10
2016,09,17,19,38,15.10
2016,09,17,19,39,15.00
2016,09,17,19,40,15.00
2016,09,17,19,41,15.00
2016,09,17,19,42,14.90
2016,09,17,19,43,14.90
2016,09,17,19,44,14.90
2016,09,17,19,46,14.90
2016,09,17,19,47,14.90
2016,09,17,19,48,14.80
2016,09,17,19,49,14.80
2016,09,17,19,50,14.80
2016,09,17,19,51,14.80
2016,09,17,19,52,14.80
2016,09,17,19,53,14.80
2016,09,17,19,54,14.80
2016,09,17,19,55,14.80
2016,09,17,19,56,14.80
2016,09,17,19,57,14.80
2016,09,17,19,58,14.80
2016,09,17,19,59,14.80
2016,09,17,20,00,14.80
2016,09,17,20,01,14.80
2016,09,17,20,02,14.80
2016,09,17,20,03,14.70
2016,09,17,20,04,14.70